Orbital Elements at Epoch 2459000.5 (2020-May-31.0) TDB
Reference: JPL 9 (heliocentric ecliptic J2000)
Element | Value | Uncertainty (1-sigma) | Units |
e | .08059679317870277 | 5.1548e-08 | |
a | 2.297695076564489 | 1.3345e-08 | au |
q | 2.112508221690897 | 1.1639e-07 | au |
i | 5.097205367549911 | 5.9305e-06 | deg |
node | 127.0166084545036 | 7.1362e-05 | deg |
peri | 343.0139129243491 | 8.4196e-05 | deg |
M | 100.6708029160325 | 4.4509e-05 | deg |
tp | 2458644.755619097489 (2019-Jun-10.25561910) | 0.00015626 | TDB |
period | 1272.146177593547 3.48 | 1.1083e-05 3.034e-08 | d yr |
n | .282986347277318 | 2.4653e-09 | deg/d |
Q | 2.48288193143808 | 1.442e-08 | au |
|
| | Orbit Determination Parameters
Additional Information
|